This demonstration page uses our WeatherBlox Daily Observations layout. Learn more.

40.92945, -100.16068

Hourly Observations for January 19, 2019

Temp ( °F °C ) Dew Point ( °F °C ) Humidity (%) Winds ( mph kmh ) Pressure ( in mb ) Visibility ( mi km ) Precip ( " mm )
12:15 am 00:15 Cloudy 17 -8.6 12 -11.3 81 81 N 18 30 30.42 1030 10 16.09344 0 0
12:35 am 00:35 Cloudy 16 -8.7 11 -11.6 80 80 N 17 28 30.42 1030 10 16.09344 0 0
12:55 am 00:55 Cloudy 16 -8.7 11 -11.5 80 80 N 16 26 30.42 1030 10 16.09344 0 0
1:15 am 01:15 Cloudy 15 -9.2 10 -12 80 80 N 20 31 30.45 1031 10 16.09344 0 0
1:35 am 01:35 Cloudy 15 -9.2 10 -12 80 80 N 16 26 30.45 1031 10 16.09344 0 0
1:55 am 01:55 Cloudy 15 -9.5 10 -12.2 81 81 N 17 28 30.45 1031 10 16.09344 0 0
2:15 am 02:15 Cloudy 15 -9.5 10 -12.2 81 81 N 14 22 30.45 1031 10 16.09344 0 0
2:35 am 02:35 Cloudy 15 -9.7 10 -12.5 80 80 N 18 30 30.45 1031 10 16.09344 0 0
2:55 am 02:55 Cloudy 14 -10 9 -12.8 80 80 N 20 31 30.45 1031 10 16.09344 0 0
3:15 am 03:15 Cloudy 14 -10 9 -13 79 79 N 18 30 30.48 1032 10 16.09344 0 0
3:35 am 03:35 Cloudy 14 -10 9 -12.7 81 81 N 15 24 30.48 1032 10 16.09344 0 0
3:55 am 03:55 Cloudy 14 -10 9 -12.7 81 81 N 16 26 30.48 1032 10 16.09344 0 0
4:15 am 04:15 Cloudy 13 -10.3 8 -13.3 79 79 N 17 28 30.48 1032 10 16.09344 0 0
4:35 am 04:35 Mostly Cloudy 13 -10.6 8 -13.5 79 79 N 15 24 30.48 1032 10 16.09344 0 0
4:55 am 04:55 Partly Cloudy 12 -11 7 -13.7 81 81 N 14 22 30.48 1032 10 16.09344 0 0
5:15 am 05:15 Clear 12 -11.1 7 -13.9 80 80 N 13 20 30.48 1032 10 16.09344 0 0
5:35 am 05:35 Clear 12 -11.3 7 -14 81 81 N 12 19 30.48 1032 10 16.09344 0 0
5:55 am 05:55 Clear 11 -11.5 7 -14.1 81 81 NNW 10 17 30.5 1033 10 16.09344 0 0
6:15 am 06:15 Clear 11 -11.5 6 -14.3 80 80 N 12 19 30.53 1034 10 16.09344 0 0
6:35 am 06:35 Clear 11 -11.6 6 -14.4 80 80 NNW 10 17 30.53 1034 10 16.09344 0 0
6:55 am 06:55 Clear 11 -11.6 6 -14.5 79 79 NNW 13 20 30.53 1034 10 16.09344 0 0
7:15 am 07:15 Clear 11 -11.6 6 -14.5 79 79 NNW 12 19 30.53 1034 10 16.09344 0 0
7:35 am 07:35 Clear 11 -11.7 6 -14.6 79 79 N 9 15 30.53 1034 10 16.09344 0 0
7:55 am 07:55 Clear 11 -11.7 6 -14.5 80 80 NNW 12 19 30.53 1034 10 16.09344 0 0
8:15 am 08:15 Sunny 11 -11.7 6 -14.5 80 80 N 12 19 30.56 1035 10 16.09344 0 0
8:35 am 08:35 Sunny 11 -11.6 6 -14.5 79 79 NNW 9 15 30.56 1035 10 16.09344 0 0
8:55 am 08:55 Sunny 11 -11.4 6 -14.3 79 79 N 10 17 30.56 1035 10 16.09344 0 0
9:15 am 09:15 Sunny 12 -11.1 7 -14.1 79 79 N 9 15 30.56 1035 10 16.09344 0 0
9:35 am 09:35 Sunny 13 -10.7 7 -13.7 79 79 N 9 15 30.53 1034 10 16.09344 0 0
9:55 am 09:55 Sunny 13 -10.3 8 -13.4 78 78 N 8 13 30.53 1034 10 16.09344 0 0
10:15 am 10:15 Sunny 15 -9.7 9 -12.7 79 79 N 8 13 30.53 1034 10 16.09344 0 0
10:35 am 10:35 Sunny 15 -9.4 10 -12.4 79 79 N 8 13 30.53 1034 10 16.09344 0 0
10:55 am 10:55 Sunny 16 -8.9 10 -12 78 78 N 6 9 30.53 1034 10 16.09344 0 0
11:15 am 11:15 Sunny 17 -8.4 11 -11.5 79 79 NW 8 13 30.56 1035 10 16.09344 0 0
11:35 am 11:35 Sunny 18 -7.9 12 -11 79 79 N 6 9 30.5 1033 10 16.09344 0 0
11:55 am 11:55 Sunny 18 -7.6 12 -11.2 76 76 NNW 6 9 30.5 1033 10 16.09344 0 0
12:15 pm 12:15 Sunny 19 -7.3 13 -10.7 77 77 NW 5 7 30.5 1033 10 16.09344 0 0
12:35 pm 12:35 Partly Cloudy 19 -7.1 12 -11.1 73 73 Calm 30.48 1032 10 16.09344 0 0
12:55 pm 12:55 Partly Cloudy 20 -6.5 13 -10.5 74 74 Calm 30.48 1032 10 16.09344 0 0
1:15 pm 13:15 Mostly Cloudy 21 -6.2 14 -10.1 74 74 W 3 6 30.45 1031 10 16.09344 0 0
1:35 pm 13:35 Partly Cloudy 21 -6 14 -10.2 73 73 SW 3 6 30.45 1031 10 16.09344 0 0
1:55 pm 13:55 Sunny 22 -5.7 14 -9.9 73 73 W 5 7 30.39 1029 10 16.09344 0 0
2:15 pm 14:15 Sunny 23 -5.1 14 -10.1 68 68 Calm 30.39 1029 10 16.09344 0 0
2:35 pm 14:35 Sunny 23 -4.8 15 -9.5 70 70 W 3 6 30.39 1029 10 16.09344 0 0
2:55 pm 14:55 Sunny 23 -4.8 13 -10.4 65 65 Calm 30.39 1029 10 16.09344 0 0
3:15 pm 15:15 Sunny 24 -4.2 15 -9.6 66 66 Calm 30.39 1029 10 16.09344 0 0
3:35 pm 15:35 Sunny 25 -3.8 14 -9.8 63 63 SW 3 6 30.36 1028 10 16.09344 0 0
3:55 pm 15:55 Sunny 26 -3.5 15 -9.7 63 63 Calm 30.33 1027 10 16.09344 0 0
4:15 pm 16:15 Sunny 27 -3 16 -8.9 64 64 SW 3 6 30.33 1027 10 16.09344 0 0
4:35 pm 16:35 Sunny 27 -3 17 -8.5 66 66 SSW 6 9 30.33 1027 10 16.09344 0 0
4:55 pm 16:55 Sunny 27 -2.9 17 -8.4 66 66 SW 6 9 30.33 1027 10 16.09344 0 0
5:15 pm 17:15 Sunny 26 -3.2 17 -8.3 68 68 SW 6 9 30.33 1027 10 16.09344 0 0
5:35 pm 17:35 Sunny 26 -3.5 18 -8 71 71 SSW 5 7 30.33 1027 10 16.09344 0 0
5:55 pm 17:55 Clear 25 -4.1 19 -7.4 78 78 SSW 6 9 30.36 1028 10 16.09344 0 0
6:15 pm 18:15 Clear 25 -4.1 18 -7.6 77 77 S 6 9 30.36 1028 10 16.09344 0 0
6:35 pm 18:35 Clear 24 -4.5 19 -7.5 80 80 SSE 6 9 30.36 1028 10 16.09344 0 0
6:55 pm 18:55 Clear 24 -4.5 18 -7.7 79 79 SSE 8 13 30.33 1027 10 16.09344 0 0
7:15 pm 19:15 Clear 24 -4.6 18 -7.8 79 79 SSE 7 11 30.36 1028 10 16.09344 0 0
7:35 pm 19:35 Clear 23 -4.8 18 -7.7 80 80 SSE 7 11 30.36 1028 10 16.09344 0 0
7:55 pm 19:55 Clear 23 -5 18 -7.9 80 80 SSE 6 9 30.36 1028 10 16.09344 0 0
8:15 pm 20:15 Clear 22 -5.3 18 -8 82 82 S 6 9 30.36 1028 10 16.09344 0 0
8:35 pm 20:35 Clear 23 -5.2 18 -7.9 82 82 SSE 6 9 30.36 1028 10 16.09344 0 0
8:55 pm 20:55 Clear 22 -5.3 18 -8 82 82 SSE 7 11 30.36 1028 10 16.09344 0 0
9:15 pm 21:15 Clear 22 -5.5 18 -8 83 83 SSE 8 13 30.33 1027 10 16.09344 0 0
9:35 pm 21:35 Clear 22 -5.5 18 -7.8 84 84 S 7 11 30.33 1027 10 16.09344 0 0
9:55 pm 21:55 Clear 22 -5.3 18 -7.7 83 83 S 9 15 30.33 1027 10 16.09344 0 0
10:15 pm 22:15 Clear 22 -5.3 18 -7.7 83 83 S 7 11 30.33 1027 10 16.09344 0 0
10:35 pm 22:35 Clear 23 -5 18 -7.6 82 82 S 8 13 30.33 1027 10 16.09344 0 0
10:55 pm 22:55 Clear 23 -5 18 -7.6 82 82 S 8 13 30.3 1026 10 16.09344 0 0
11:15 pm 23:15 Clear 23 -4.8 18 -7.7 80 80 S 8 13 30.3 1026 10 16.09344 0 0
11:35 pm 23:35 Clear 24 -4.7 18 -8 78 78 S 12 19 30.3 1026 10 16.09344 0 0
11:55 pm 23:55 Clear 23 -4.8 17 -8.1 78 78 S 7 11 30.3 1026 10 16.09344 0 0

Powered by AerisWeather